• Join FlightAware (Why Join?)
  • Login
  • US Flag 
07:54AM EST


 

Airport Tracker/Info


-or-


 

Live Flight TrackerFlight Track Log ✈ ASQ5685 ✈ 01-Aug-2013 ✈ KATL - KIAD

Flight Track Log - Related Links

Times and Time Zones

All times are in EDT time to prevent confusion due to time zone crossing. See the ASQ5685 flight status page for this flight to view local times or setup timezone preferences in your user account.

Time Position Orientation Groundspeed Altitude Reporting Facility
EDT Latitude Longitude Course Direction KTS MPH feet Rate Location/Type
09:22AM 33.6167 -84.5000 239° Southwest 207 238 2,500  Level Atlanta TRACON
09:23AM 33.5833 -84.5667 239° Southwest 263 303 4,900 2,340 Climbing Atlanta TRACON
09:24AM 33.5000 -84.5833 189° South 281 323 7,500 2,160 Climbing Atlanta TRACON
09:25AM 33.4572 -84.5194 129° Southeast 266 306 9,700 1,560 Climbing Atlanta Center
09:26AM 33.4575 -84.4122 90° East 283 326 10,800 1,320 Climbing Atlanta Center
09:27AM 33.4622 -84.2953 87° East 324 373 12,400 1,500 Climbing Atlanta Center
09:28AM 33.5417 -84.2183 39° Northeast 314 361 13,800 1,380 Climbing Atlanta Center
09:29AM 33.6314 -84.1611 28° Northeast 333 383 15,200 1,320 Climbing Atlanta Center
09:30AM 33.7211 -84.1036 28° Northeast 352 405 16,500 1,080 Climbing Atlanta Center
09:31AM 33.7797 -84.0014 55° Northeast 358 412 17,400 780 Climbing Atlanta Center
09:32AM 33.8381 -83.8911 57° Northeast 372 428 18,100 660 Climbing Atlanta Center
09:33AM 33.8961 -83.7761 59° Northeast 391 450 18,800 660 Climbing Atlanta Center
09:34AM 33.9586 -83.6656 56° Northeast 400 460 19,500 660 Climbing Atlanta Center
09:35AM 34.0292 -83.5575 52° Northeast 401 461 20,200 600 Climbing Atlanta Center
09:36AM 34.0956 -83.4492 53° Northeast 401 461 20,800 540 Climbing Atlanta Center
09:37AM 34.1658 -83.3383 53° Northeast 407 468 21,300 480 Climbing Atlanta Center
09:38AM 34.2361 -83.2247 53° Northeast 414 476 21,800 480 Climbing Atlanta Center
09:39AM 34.3083 -83.1083 53° Northeast 419 482 22,300 480 Climbing Atlanta Center
09:40AM 34.3783 -82.9942 53° Northeast 424 488 22,800 420 Climbing Atlanta Center
09:41AM 34.4442 -82.8953 51° Northeast 424 488 23,200 480 Climbing Atlanta Center
09:42AM 34.5119 -82.7758 55° Northeast 429 494 23,800 540 Climbing Atlanta Center
09:43AM 34.5881 -82.6611 51° Northeast 434 499 24,300 480 Climbing Atlanta Center
09:44AM 34.6678 -82.5336 53° Northeast 434 499 24,800 480 Climbing Atlanta Center
09:45AM 34.7372 -82.4161 54° Northeast 434 499 25,300 540 Climbing Atlanta Center
09:46AM 34.8108 -82.2983 53° Northeast 439 505 25,900 660 Climbing Atlanta Center
09:47AM 34.8800 -82.1803 54° Northeast 439 505 26,700 540 Climbing Atlanta Center
09:48AM 34.9533 -82.0647 52° Northeast 434 499 27,000 120 Climbing Atlanta Center
09:49AM 35.0264 -81.9461 53° Northeast 434 499 27,000  Level Atlanta Center
09:50AM 35.0953 -81.8175 57° Northeast 448 516 27,000  Level Atlanta Center
09:51AM 35.1636 -81.6861 58° Northeast 454 522 27,000  Level Atlanta Center
09:52AM 35.2319 -81.5519 58° Northeast 461 531 27,000 60 Level Atlanta Center
09:53AM 35.3064 -81.4150 56° Northeast 467 537 27,200 540 Climbing Atlanta Center
09:54AM 35.3744 -81.2828 58° Northeast 462 532 28,100 660 Climbing Atlanta Center
09:55AM 35.4400 -81.1481 59° Northeast 462 532 28,600 480 Climbing Atlanta Center
09:56AM 35.5100 -81.0181 56° Northeast 462 532 29,100 480 Climbing Atlanta Center
09:57AM 35.5778 -80.8878 57° Northeast 457 526 29,600 480 Climbing Atlanta Center
09:58AM 35.6453 -80.7600 57° Northeast 452 520 30,100 480 Climbing Atlanta Center
09:59AM 35.7125 -80.6294 58° Northeast 447 514 30,600 420 Climbing Atlanta Center
10:00AM 35.7778 -80.5014 58° Northeast 447 514 31,000 120 Climbing Atlanta Center
10:02AM 35.9022 -80.2564 58° Northeast 444 511 31,000  Level Washington Center
10:03AM 35.9681 -80.1242 58° Northeast 444 511 31,000  Level Washington Center
10:04AM 36.0419 -79.9872 56° Northeast 432 497 31,000  Level Washington Center
10:05AM 36.1156 -79.8578 55° Northeast 432 497 31,000  Level Washington Center
10:06AM 36.1867 -79.7328 55° Northeast 453 521 31,000  Level Washington Center
10:07AM 36.2511 -79.6178 55° Northeast 447 514 31,000  Level Washington Center
10:08AM 36.3289 -79.4775 55° Northeast 447 514 31,000 -600 Level Washington Center
10:09AM 36.3953 -79.3542 56° Northeast 456 525 29,900 -1,200 Descending Washington Center
10:10AM 36.4706 -79.2183 55° Northeast 466 536 28,600 -1,200 Descending Washington Center
10:11AM 36.5539 -79.0775 54° Northeast 488 562 27,500 -1,200 Descending Washington Center
10:12AM 36.6331 -78.9386 55° Northeast 494 568 26,300 -1,260 Descending Washington Center
10:13AM 36.7167 -78.7789 57° Northeast 494 568 25,000 -660 Descending Washington Center
10:14AM 36.7911 -78.6419 56° Northeast 494 568 25,000  Level Washington Center
10:15AM 36.8589 -78.5200 55° Northeast 473 544 25,000  Level Washington Center
10:16AM 36.9308 -78.3956 54° Northeast 460 529 25,000  Level Washington Center
10:17AM 37.0006 -78.2603 57° Northeast 460 529 25,000  Level Washington Center
10:18AM 37.0967 -78.1619 39° Northeast 444 511 25,000  Level Washington Center
10:19AM 37.1983 -78.0844 31° Northeast 430 495 25,000 -180 Level Washington Center
10:20AM 37.3000 -78.0069 31° Northeast 430 495 24,700 -720 Descending Washington Center
10:21AM 37.4061 -77.9239 32° Northeast 430 495 23,600 -1,080 Descending Washington Center
10:22AM 37.5161 -77.8383 32° Northeast 442 509 22,600 -1,020 Descending Washington Center
10:23AM 37.6322 -77.7683 26° Northeast 448 516 21,600 -1,620 Descending Washington Center
10:24AM 37.7458 -77.7033 24° Northeast 448 516 19,400 -2,640 Descending Washington Center
10:25AM 37.8514 -77.6406 25° Northeast 436 502 16,500 -2,880 Descending Washington Center
10:26AM 37.9553 -77.6539 354° North 396 456 13,700 -2,880 Descending Washington Center
10:27AM 38.0589 -77.6936 343° North 362 417 10,700 -1,860 Descending Washington Center
10:28AM 38.1417 -77.7303 341° North 342 394 10,000 -360 Descending Washington Center
10:29AM 38.2183 -77.7614 342° North 310 357 10,000  Level Washington Center
10:30AM 38.2969 -77.7928 343° North 299 344 10,000 -480 Level Washington Center
10:31AM 38.3783 -77.7900 North 294 338 9,100 -1,200 Descending Washington Center
10:32AM 38.4297 -77.7094 51° Northeast 259 298 7,700 -1,440 Descending Washington Center
10:33AM 38.4711 -77.6178 60° Northeast 259 298 6,200 -1,380 Descending Washington Center
10:34AM 38.5119 -77.5314 59° Northeast 269 310 5,000 -600 Descending Washington Center
10:35AM 38.5489 -77.4472 61° Northeast 274 315 5,000  Level Washington Center
10:36AM 38.5897 -77.3686 56° Northeast 268 308 5,000 -360 Level Washington Center
10:37AM 38.6606 -77.3650 North 243 280 4,300 -420 Descending Washington Center
10:39AM 38.7833 -77.3500 North 262 302 4,000 -300 Descending Potomac TRACON
10:40AM 38.8500 -77.3500 360° North 258 297 3,700 -540 Descending Potomac TRACON
10:41AM 38.9167 -77.3500 360° North 263 303 3,000 -360 Descending Potomac TRACON
10:42AM 38.9833 -77.3500 360° North 258 297 3,000 -300 Level Potomac TRACON
10:43AM 39.0667 -77.3667 351° North 259 298 2,400 -480 Descending Potomac TRACON
10:44AM 39.0500 -77.4333 252° West 199 229 2,000 -480 Descending Potomac TRACON
10:45AM 39.0167 -77.4333 180° South 158 182 1,500 -720 Descending Potomac TRACON
10:46AM 38.9667 -77.4333 180° South 141 162 600 -840 Descending Potomac TRACON